www.pogodaiklimat.ru

Погода и климат >> Архив погоды >> Япония >> Нара


ПОГОДА в Наре

  • Прогноз погоды в Наре
  • Монитор погоды в Наре

АРХИВ ПОГОДЫ в Наре

Время (UTC), дата Ветер
(напр.,м/с)
 
Видим.   Явления Облачность Т
(С)
Тd
(С)
f
(%)
Тe
(С)
Тes
(С)
Комфортность P
(гПа)
Po
(гПа)
Тmin
(С)
Tmax
(С)
R
(мм)
R24
(мм)
S
(см)
01 16.09 З 1 н/о н/о +27.1 +20.5 67 +34 +34 очень
душно
1003.9 992.3
03 16.09 СЗ 4 н/о н/о +28.4 +19.9 60 +35 +35 очень
душно
1003.0 991.4
04 16.09 С 5 н/о н/о +29.2 +20.1 58 +36 +36 очень
душно
1002.6 991.1
05 16.09 С 6 н/о н/о +29.7 +20.0 56 +36 +36 очень
душно
1002.7 991.2
07 16.09 С 6 н/о н/о +27.9 +18.6 57 +33 +33 очень
душно
1003.4 991.8
08 16.09 С 5 н/о н/о +27.2 +18.8 60 +32 +32 очень
душно
1003.6 992.0
09 16.09 С 4 н/о н/о +26.7 +19.1 63 +32 +32 очень
душно
1004.1 992.4
10 16.09 С 3 н/о н/о +26.0 +18.7 64 +31 +31 очень
душно
1004.9 993.2
11 16.09 С 3 н/о н/о +25.6 +18.8 66 +31 +31 очень
душно
1005.4 993.7
12 16.09 В 2 35 км 5/5
[Cu Sc]
+24.6 +19.0 71 +30 +30 очень
душно
1005.9 994.1 +30.4
13 16.09 В 1 н/о н/о +23.1 +19.1 78 +29 +29 очень
душно
1006.2 994.4
14 16.09 В 2 н/о н/о +22.7 +19.3 81 +29 +29 очень
душно
1006.3 994.4
15 16.09 В 2 н/о н/о +22.3 +19.3 83 +28 +28 душно 1006.7 994.8
16 16.09 В 2 н/о н/о +22.2 +19.4 84 +28 +28 душно 1006.9 995.0
17 16.09 ЮВ 1 н/о н/о +21.7 +19.5 87 +27 +27 душно 1007.0 995.1
18 16.09 ЮВ 2 н/о н/о +21.3 +19.4 89 +26 +26 душно 1007.4 995.5
19 16.09 В 1 н/о н/о +21.7 +19.5 87 +27 +27 душно 1007.9 996.0
20 16.09 штиль 0 н/о н/о +21.7 +19.5 87 +27 +27 душно 1008.2 996.3
21 16.09 штиль 0 н/о н/о +21.2 +19.3 89 +26 +26 душно 1008.7 996.7
22 16.09 ЮВ 1 н/о н/о +22.2 +19.6 85 +28 +28 душно 1009.0 997.1
23 16.09 Ю 1 н/о н/о +24.5 +19.8 75 +30 +30 очень
душно
1009.5 997.7
01 17.09 СЗ 3 н/о н/о +28.3 +20.1 61 +35 +35 очень
душно
1009.8 998.1
02 17.09 С 1 н/о н/о +29.0 +19.9 58 +35 +35 очень
душно
1009.2 997.6
03 17.09 С 3 н/о н/о +29.2 +18.9 54 +35 +35 очень
душно
1008.8 997.2
04 17.09 С 3 н/о н/о +29.7 +19.1 53 +35 +35 очень
душно
1008.3 996.7
05 17.09 СЗ 3 н/о н/о +29.8 +18.9 52 +35 +35 очень
душно
1008.1 996.5
06 17.09 С 4 35 км 9/9
[Cu Sc]
+29.1 +19.4 56 +35 +35 очень
душно
1008.1 996.5
07 17.09 С 6 н/о н/о +28.2 +19.4 59 +34 +34 очень
душно
1008.6 996.9
08 17.09 С 5 н/о н/о +27.1 +19.5 63 +33 +33 очень
душно
1009.2 997.5
09 17.09 С 5 н/о н/о +26.0 +19.2 66 +31 +31 очень
душно
1010.0 998.2
11 17.09 С 2 н/о н/о +24.3 +19.2 73 +29 +29 душно 1010.8 999.0
12 17.09 С 2 30 км 9/3
[Cu Sc Ac trans]
+23.9 +19.4 76 +29 +29 душно 1011.0 999.1 +31.0
13 17.09 С 2 н/о н/о +23.7 +19.2 76 +29 +29 душно 1011.3 999.4
14 17.09 С 2 н/о н/о +23.6 +19.6 78 +29 +29 душно 1011.2 999.3
15 17.09 С 2 н/о н/о +23.5 +19.7 79 +29 +29 душно 1011.1 999.2
16 17.09 С 2 н/о н/о +23.3 +19.9 81 +30 +30 очень
душно
1011.1 999.2
17 17.09 СВ 2 н/о н/о +23.3 +19.7 80 +30 +30 очень
душно
1010.6 998.7
18 17.09 СВ 1 н/о н/о +23.0 +20.0 83 +30 +30 очень
душно
1010.4 998.5
20 17.09 С 2 н/о н/о +22.8 +19.8 83 +29 +29 очень
душно
1010.4 998.5
23 17.09 СЗ 1 н/о н/о +23.2 +20.0 82 +30 +30 очень
душно
1011.4 999.5
00 18.09 С 2 20 км в посл. час ливневой дождь 9/9
[Cu Sc]
+23.2 +20.5 85 +31 +31 очень
душно
1011.7 999.8 +22.8 0.0
01 18.09 СВ 2 н/о н/о +23.9 +19.8 78 +29 +29 душно 1012.0 1000.1
02 18.09 Ю 3 н/о н/о +26.3 +20.9 72 +33 +33 очень
душно
1010.7 998.9
03 18.09 Ю 3 н/о н/о +25.9 +20.7 73 +32 +32 очень
душно
1010.1 998.3
04 18.09 Ю 1 н/о н/о +26.3 +20.4 70 +33 +33 очень
душно
1009.4 997.7
05 18.09 Ю 2 н/о н/о +26.9 +20.3 67 +33 +33 очень
душно
1009.0 997.3
06 18.09 СВ 2 20 км {ливн. осадки} 9/9
[Cu med, cong]
+27.3 +20.2 65 +34 +34 очень
душно
1009.1 997.4 0.0
07 18.09 С 5 н/о н/о +27.7 +17.0 52 +32 +32 очень
душно
1009.2 997.5
09 18.09 С 6 н/о н/о +24.8 +14.6 53 +27 +27 жарко 1011.0 999.2
10 18.09 С 3 н/о н/о +23.4 +14.7 58 +27 +27 душно 1011.8 999.9
11 18.09 С 2 н/о н/о +22.2 +14.8 63 +26 +26 душно 1012.5 1000.5
12 18.09 В 1 30 км {ливн. осадки} 1/0
[Ac trans Ci sp]
+20.8 +15.1 70 +25 +25 комфорт 1013.0 1001.0 +28.0 0.0
13 18.09 В 2 н/о н/о +19.9 +15.1 74 +23 +23 комфорт 1013.3 1001.2
14 18.09 В 1 н/о н/о +19.7 +15.2 75 +23 +23 комфорт 1012.9 1000.8
15 18.09 В 1 н/о н/о +19.1 +15.0 77 +22 +22 комфорт 1013.0 1000.9
16 18.09 В 1 н/о н/о +18.9 +15.0 78 +21 +21 комфорт 1013.0 1000.9
17 18.09 ЮВ 2 н/о н/о +19.0 +15.3 79 +21 +21 комфорт 1013.0 1000.9
18 18.09 Ю 1 н/о н/о +18.4 +15.3 82 +20 +20 1013.4 1001.2
19 18.09 В 1 н/о н/о +18.0 +15.5 85 +19 +19 1013.8 1001.6
20 18.09 ЮЗ 1 н/о н/о +17.7 +15.5 87 +19 +19 1014.1 1001.9
21 18.09 ЮЗ 1 н/о н/о +17.9 +15.4 85 +20 +20 1014.6 1002.4
22 18.09 Ю 1 н/о н/о +19.2 +15.7 80 +22 +22 комфорт 1015.0 1002.9
23 18.09 СЗ 1 н/о н/о +20.4 +16.0 76 +24 +24 комфорт 1015.2 1003.1
00 19.09 С 3 30 км 9/9
[Cu med, cong Ac trans]
+22.1 +15.7 67 +26 +27 душно 1015.0 1003.0 +17.6
01 19.09 С 3 н/о н/о +24.2 +15.4 58 +27 +27 жарко 1015.0 1003.1
02 19.09 СЗ 4 н/о н/о +24.7 +13.6 50 +27 +27 жарко 1015.4 1003.5
03 19.09 СЗ 4 н/о н/о +25.9 +12.7 44 +28 +28 жарко 1014.9 1003.1
04 19.09 СЗ 5 н/о н/о +26.4 +12.8 43 +28 +28 жарко 1014.6 1002.8
05 19.09 СЗ 5 н/о н/о +26.4 +12.5 42 +28 +28 жарко 1013.9 1002.1
06 19.09 С 5 50 км 1/1
[Cu hum Ci sp]
+26.6 +12.3 41 +28 +32 жарко 1013.7 1001.9
07 19.09 С 4 н/о н/о +25.5 +11.7 42 +27 +27 жарко 1013.5 1001.7
08 19.09 С 5 н/о н/о +24.7 +11.3 43 +26 +26 жарко 1013.9 1002.0
09 19.09 С 4 н/о н/о +22.7 +11.5 49 +25 +25 комфорт 1014.2 1002.2
10 19.09 С 4 н/о н/о +21.0 +12.2 57 +24 +24 комфорт 1015.3 1003.2
11 19.09 С 4 н/о н/о +19.8 +12.1 61 +21 +21 комфорт 1016.2 1004.1
12 19.09 СВ 2 30 км 3/0
[Ac trans Ci fib]
+19.0 +12.0 64 +21 +21 комфорт 1016.3 1004.1 +26.7
13 19.09 В 1 н/о н/о +17.6 +12.7 73 +19 +19 1016.4 1004.2
14 19.09 В 1 н/о н/о +17.1 +12.0 72 +18 +18 1016.6 1004.3
15 19.09 СВ 1 н/о н/о +16.4 +12.4 77 +18 +18 1016.3 1004.0
16 19.09 СВ 1 н/о н/о +16.2 +12.4 78 +18 +18 1016.0 1003.7
18 19.09 СВ 1 н/о н/о +15.1 +12.8 86 +16 +16 1015.9 1003.6
19 19.09 Ю 2 н/о н/о +14.8 +12.7 87 +15 +15 1016.6 1004.2
20 19.09 В 1 н/о н/о +14.7 +12.9 89 +16 +16 1016.6 1004.2
21 19.09 ЮВ 1 н/о н/о +14.6 +12.6 88 +16 +16 1017.3 1004.9
22 19.09 С 1 н/о н/о +15.5 +12.8 84 +17 +17 1017.5 1005.2
23 19.09 СЗ 2 н/о н/о +18.3 +13.4 73 +19 +19 1017.0 1004.8
00 20.09 С 3 35 км 8/1
[Cu Sc Ac trans Ci fib]
+19.5 +14.1 71 +21 +25 комфорт 1016.7 1004.6 +14.0
01 20.09 С 4 н/о н/о +23.3 +14.6 58 +27 +27 душно 1016.1 1004.1
02 20.09 С 4 н/о н/о +25.4 +14.8 52 +28 +28 жарко 1015.4 1003.5
03 20.09 С 4 н/о н/о +27.0 +15.4 49 +30 +30 душно 1014.8 1003.0
04 20.09 С 3 н/о н/о +26.7 +15.7 51 +30 +30 душно 1014.6 1002.8
05 20.09 С 3 н/о н/о +25.7 +16.8 58 +29 +29 душно 1014.9 1003.1
06 20.09 В 1 30 км слаб. дождь 10/3
[Cu Sc Ac As]
+24.7 +18.4 68 +29 +31 душно 1015.5 1003.6 0.0
07 20.09 В 2 н/о н/о +23.2 +19.4 79 +30 +30 очень
душно
1016.0 1004.0
08 20.09 В 2 н/о н/о +21.9 +19.3 85 +27 +27 душно 1015.9 1003.9
09 20.09 ЮВ 4 н/о н/о +21.5 +19.3 87 +26 +26 душно 1017.2 1005.1
10 20.09 ЮВ 3 н/о н/о +20.5 +19.0 91 +25 +25 комфорт 1018.5 1006.4
11 20.09 ЮВ 3 н/о н/о +20.0 +18.7 92 +23 +23 комфорт 1019.0 1006.9
12 20.09 Ю 1 20 км слаб. дождь 10/1
[Frnb Ac As]
+19.5 +18.2 92 +23 +23 комфорт 1019.1 1006.9 +27.5 2
13 20.09 СВ 2 н/о н/о +19.4 +18.8 96 +23 +23 комфорт 1019.9 1007.7
14 20.09 С 3 н/о н/о +18.6 +17.6 94 +20 +20 1019.5 1007.3
15 20.09 С 3 н/о н/о +18.1 +17.1 94 +18 +18 1019.7 1007.5
16 20.09 С 2 н/о н/о +18.1 +17.0 93 +19 +19 1019.0 1006.8
17 20.09 С 2 н/о н/о +18.2 +17.6 96 +19 +19 1018.7 1006.5
18 20.09 С 4 н/о н/о +17.9 +17.4 97 +18 +18 1018.1 1005.9 5
19 20.09 С 4 н/о н/о +17.4 +16.9 97 +17 +17 1018.1 1005.8
20 20.09 С 4 н/о н/о +17.8 +17.3 97 +18 +18 1018.0 1005.8
21 20.09 С 3 н/о н/о +18.2 +17.6 96 +19 +19 1018.4 1006.2
22 20.09 С 3 н/о н/о +18.6 +17.8 95 +20 +20 1018.9 1006.7
23 20.09 СВ 3 н/о н/о +19.7 +18.0 90 +23 +23 комфорт 1019.3 1007.1
00 21.09 С 3 15 км {дождь} 10/8
[Cu Sc Ac As]
+20.5 +18.5 88 +25 +25 комфорт 1019.2 1007.1 +17.4 5
01 21.09 СВ 2 н/о н/о +21.9 +18.1 79 +27 +27 душно 1019.2 1007.1
02 21.09 Ю 2 н/о н/о +22.9 +19.1 79 +29 +29 очень
душно
1018.7 1006.7
03 21.09 Ю 1 н/о н/о +23.9 +18.8 73 +29 +29 душно 1018.2 1006.2
04 21.09 В 3 н/о н/о +25.2 +19.4 70 +30 +30 душно 1017.3 1005.4
05 21.09 В 4 н/о н/о +26.0 +19.2 66 +31 +31 очень
душно
1016.5 1004.7
06 21.09 В 4 40 км 9/5
[Cu Sc Ac As Ci sp]
+25.2 +18.4 66 +30 +31 душно 1016.5 1004.6
07 21.09 В 3 н/о н/о +24.3 +18.9 72 +29 +29 душно 1016.2 1004.3
08 21.09 В 6 н/о н/о +23.1 +18.6 76 +29 +29 очень
душно
1016.2 1004.2
09 21.09 СЗ 2 н/о н/о +22.7 +18.3 76 +28 +28 душно 1017.3 1005.3
10 21.09 С 2 н/о н/о +22.5 +18.1 76 +28 +28 душно 1017.8 1005.8
11 21.09 В 2 н/о н/о +22.8 +18.1 75 +28 +28 душно 1018.5 1006.5
12 21.09 С 3 30 км 9/1
[Cu Sc Ac As Ci sp]
+22.2 +18.2 78 +27 +27 душно 1018.4 1006.4 +26.4
13 21.09 В 2 н/о н/о +22.8 +18.4 76 +28 +28 душно 1018.0 1006.0
14 21.09 С 3 н/о н/о +21.8 +18.6 82 +27 +27 душно 1017.5 1005.5
15 21.09 С 3 н/о н/о +22.0 +18.6 81 +27 +27 душно 1016.9 1004.9
16 21.09 СВ 2 н/о н/о +23.0 +19.0 78 +29 +29 очень
душно
1017.0 1005.0
17 21.09 С 3 н/о н/о +22.5 +18.9 80 +28 +28 душно 1016.0 1004.0
18 21.09 СВ 2 н/о н/о +22.8 +18.8 78 +29 +29 очень
душно
1015.7 1003.7
19 21.09 СВ 3 н/о н/о +22.9 +18.2 75 +29 +29 очень
душно
1015.6 1003.6
20 21.09 С 3 н/о н/о +22.4 +18.6 79 +28 +28 душно 1015.7 1003.7
21 21.09 С 3 н/о н/о +22.0 +18.4 80 +27 +27 душно 1015.6 1003.6
22 21.09 СВ 3 н/о н/о +22.7 +18.5 77 +28 +28 душно 1015.0 1003.0
23 21.09 В 2 н/о н/о +23.1 +18.2 74 +29 +29 очень
душно
1014.7 1002.8
00 22.09 В 4 40 км 9/3
[Cu med, cong Ac As]
+24.1 +19.0 73 +29 +30 душно 1014.8 1002.9 +21.7
01 22.09 В 5 н/о н/о +25.1 +19.5 71 +30 +30 душно 1014.3 1002.4
02 22.09 В 3 н/о н/о +25.3 +19.7 71 +31 +31 очень
душно
1013.7 1001.9
03 22.09 В 5 н/о н/о +25.9 +19.3 67 +31 +31 очень
душно
1012.6 1000.8
04 22.09 В 4 н/о н/о +26.4 +20.0 68 +32 +32 очень
душно
1011.7 999.9
05 22.09 В 5 н/о н/о +26.2 +20.8 72 +33 +33 очень
душно
1010.7 998.9
06 22.09 В 4 12 км слаб. ливневой дождь 9/9
[Cu med, cong]
+24.7 +20.8 79 +31 +31 очень
душно
1010.4 998.6 0.0
07 22.09 СВ 2 н/о н/о +23.6 +21.9 90 +30 +30 очень
душно
1010.2 998.3
08 22.09 В 2 н/о н/о +24.4 +21.3 83 +31 +31 очень
душно
1009.8 998.0
09 22.09 В 2 н/о н/о +24.3 +21.0 82 +31 +31 очень
душно
1009.3 997.5
10 22.09 В 4 н/о н/о +24.7 +21.2 81 +31 +31 очень
душно
1009.0 997.2
11 22.09 В 1 н/о н/о +25.0 +21.5 81 +32 +32 очень
душно
1009.2 997.4
13 22.09 СВ 3 н/о н/о +24.6 +21.9 85 +32 +32 очень
душно
1007.6 995.8
14 22.09 Ю 3 н/о н/о +27.3 +21.4 70 +35 +35 очень
душно
1006.8 995.1
15 22.09 ЮВ 6 н/о н/о +27.5 +21.1 68 +35 +35 очень
душно
1005.4 993.8
16 22.09 СЗ 1 н/о н/о +26.7 +21.0 71 +34 +34 очень
душно
1005.4 993.7
17 22.09 Ю 2 н/о н/о +26.2 +21.6 76 +34 +34 очень
душно
1004.9 993.2
18 22.09 Ю 3 н/о н/о +26.6 +21.4 73 +34 +34 очень
душно
1004.0 992.3 0.0
19 22.09 В 3 н/о н/о +24.2 +22.5 90 +32 +32 очень
душно
1003.7 991.9
20 22.09 Ю 2 н/о н/о +24.2 +22.5 90 +32 +32 очень
душно
1004.9 993.1
21 22.09 ЮВ 5 н/о н/о +25.3 +22.4 84 +33 +33 очень
душно
1004.6 992.9
22 22.09 Ю 3 н/о н/о +25.9 +23.0 84 +35 +35 очень
душно
1005.3 993.6
23 22.09 Ю 5 н/о н/о +28.0 +22.9 74 +37 +37 очень
душно
1005.5 993.9

 

Местоположение метеостанции Нара (Япония): широта 34.70 долгота 135.83 высота над уровнем моря 106 м.

В архиве по умолчанию представлена погода в Наре за последнюю неделю. Архивные данные за месяц целиком и за предыдущие месяцы, начиная с января 2011 года, Вы можете получить, выбрав интересующий диапазон дат из раскрывающегося списка и нажав кнопку "Ввод!".


*Определитесь, кто Вы:
робот инопланетянин человек

Внимание! Время в таблицах - всемирное. Для получения местного времени необходимо прибавить поправку, которая равна 9 ч.

Смотрите также архив погоды в соседних городах и на ближайших метеорологических станциях:

Погода в Осаке (Япония) (29 км)
Погода в Уэно (Япония) (30 км)
Погода в Киото (Япония) (37 км)
Погода в Кобе (Япония) (57 км)
Погода в Цу (Япония) (62 км)
Погода в Йоккаити (Япония) (73 км)
Погода в Хиконе (Япония) (75 км)
Погода в Овасе (Япония) (78 км)
Погода в Вакаяме (Япония) (81 км)
Погода в Сумото (Япония) (95 км)

Пояснения к столбцам:

Ветер - указаны скорость ветра в м/с - средняя за 10 мин, порывы в срок и между сроками (в фигурных скобках) и направление, откуда дует ветер: С - северный, СВ - северо-восточный, В - восточный, ЮВ - юго-восточный, Ю - южный, ЮЗ - юго-западный, З - западный, СЗ - северо-западный.
Видимость - горизонтальная дальность видимости в метрах или километрах. При видимости от 1 до 10 км при отсутствии осадков обычно наблюдается дымка, при ухудшении видимости до 1 км и менее - туман. В сухую погоду видимость может ухудшаться дымом, пылью или мглою.
Явления - указаны атмосферные явления, наблюдавшиеся в срок или в последний час перед сроком; фигурными скобками обозначены явления, наблюдавшиеся между сроками (за 1-3 часа до срока); квадратными скобками обозначены град или гололедные отложения с указанием их диаметра в мм.
Облачность - указаны через наклонную черту общая и нижняя облачность в баллах и высота нижней границы облаков в метрах; квадратными скобками обозначены формы облаков: Ci - перистые, Cs - перисто-слоистые, Cc - перисто-кучевые, Ac - высококучевые, As - высокослоистые, Sc - слоисто-кучевые, Ns - слоисто-дождевые, Cu - кучевые, Cb - кучево-дождевые. Подробнее классификацию облаков см. в Атласе облаков (PDF).
T - Температура воздуха - температура, измеренная на высоте 2 м над землей.
Td - Температура точки росы - температура, при понижении до которой содержащийся в воздухе водяной пар достигнет насыщения.
f - Относительная влажность воздуха - влажноcть воздуха, измеренная на высоте 2 м над землей.
Te - Эффективная температура - температура, которую ощущает одетый по сезону человек в тени. Характеристика душности погоды. При расчете учитывается влияние влажности воздуха и скорости ветра на теплоощущения человека.
Tes - Эффективная температура на солнце - температура, которую ощущает человек, с поправкой на солнечный нагрев. Характеристика знойности погоды. Зависит от высоты солнца над горизонтом, облачности и скорости ветра. Ночью, в пасмурную погоду, а также при ветре 12 м/с и более поправка равна нулю.
P - Атмосферное давление - приведенное к уровню моря атмосферное давление.
Po - Атмосферное давление - измеренное на уровне метеостанции атмосферное давление.
Tmin - Минимальная температура - минимум температуры воздуха на высоте 2 м над землей.
Tmax - Максимальная температура - максимум температуры воздуха на высоте 2 м над землей.
R - Количество осадков - Количество выпавших осадков за период времени, мм. При наведении курсора мыши на число - период времени, за который выпало указанное количество осадков.
R24 - Количество осадков - Количество выпавших осадков за 24 часа, мм.
S - Снежный покров - Высота снежного покрова, см. При наведении курсора мыши на число - состояние снежного покрова и степень покрытия местности в баллах.